RYR919G EICK-LEGE

Flight info

Callsign RYR919G
Flight time 1h 56m
Altitude 37000
Route ORTOM DCT ARKIL DCT DOLUR DCT TERKU DCT KORER UM616 TUPAR DCT CNA DCT SECHE DCT GAI DCT PPG A27 KANIG
Aircraft B738/M-SADFGHIJ1J7LP2RWXY/SB1D1G1

Departure

Time 2026-04-26 18:18
Airport Cork International Airport (EICK)

Arrival

Time 2026-04-26 20:15
Airport Girona-Costa Brava Airport (LEGE)
Time Latitude Longitude Altitude Speed Heading
2026-04-26 17:57 51.84979 -8.49134 502 ft 0 kts 70°
2026-04-26 18:09 51.84972 -8.49170 502 ft 4 kts 77°
2026-04-26 18:09 51.84967 -8.49211 502 ft 2 kts 76°
2026-04-26 18:10 51.84963 -8.49246 502 ft 4 kts 101°
2026-04-26 18:10 51.84973 -8.49280 502 ft 3 kts 132°
2026-04-26 18:10 51.84990 -8.49296 502 ft 1 kts 161°
2026-04-26 18:10 51.84991 -8.49296 502 ft 1 kts 160°
2026-04-26 18:12 51.84987 -8.49294 502 ft 2 kts 161°
2026-04-26 18:12 51.84933 -8.49269 502 ft 12 kts 166°
2026-04-26 18:13 51.84849 -8.49226 502 ft 13 kts 166°
2026-04-26 18:13 51.84763 -8.49195 502 ft 12 kts 167°
2026-04-26 18:13 51.84681 -8.49151 501 ft 12 kts 159°
2026-04-26 18:13 51.84654 -8.49135 500 ft 13 kts 161°
2026-04-26 18:14 51.84492 -8.49039 489 ft 17 kts 160°
2026-04-26 18:14 51.84386 -8.48981 484 ft 12 kts 176°
2026-04-26 18:14 51.84340 -8.49048 483 ft 3 kts 243°
2026-04-26 18:14 51.84339 -8.49049 483 ft 0 kts 243°
2026-04-26 18:15 51.84335 -8.49063 481 ft 4 kts 243°
2026-04-26 18:15 51.84303 -8.49156 476 ft 13 kts 231°
2026-04-26 18:15 51.84243 -8.49175 481 ft 15 kts 163°
2026-04-26 18:15 51.84095 -8.49086 473 ft 20 kts 160°
2026-04-26 18:16 51.83992 -8.49025 468 ft 28 kts 160°
2026-04-26 18:16 51.83559 -8.48771 469 ft 33 kts 159°
2026-04-26 18:16 51.83304 -8.48588 470 ft 24 kts 122°
2026-04-26 18:17 51.83283 -8.48531 471 ft 7 kts 135°
2026-04-26 18:17 51.83244 -8.48555 469 ft 7 kts 248°
2026-04-26 18:17 51.83268 -8.48610 470 ft 7 kts 353°
2026-04-26 18:17 51.83323 -8.48632 469 ft 16 kts 338°
2026-04-26 18:18 51.83574 -8.48781 469 ft 73 kts 340°
2026-04-26 18:18 51.84293 -8.49207 482 ft 143 kts 340°
2026-04-26 18:18 51.85337 -8.49765 1007 ft 161 kts 342°
2026-04-26 18:18 51.86449 -8.50314 1791 ft 175 kts 343°
2026-04-26 18:19 51.87641 -8.50918 2657 ft 181 kts 343°
2026-04-26 18:19 51.88643 -8.51838 3151 ft 170 kts 303°
2026-04-26 18:19 51.88948 -8.53821 3529 ft 205 kts 270°
2026-04-26 18:19 51.88507 -8.56256 3534 ft 246 kts 241°
2026-04-26 18:20 51.87297 -8.58234 3629 ft 249 kts 214°
2026-04-26 18:20 51.85832 -8.59759 4279 ft 255 kts 213°
2026-04-26 18:20 51.84160 -8.60902 5000 ft 269 kts 186°
2026-04-26 18:20 51.82922 -8.60733 5608 ft 272 kts 162°
2026-04-26 18:21 51.80891 -8.58349 6910 ft 275 kts 133°
2026-04-26 18:21 51.79548 -8.56090 7794 ft 281 kts 133°
2026-04-26 18:21 51.78206 -8.53825 8735 ft 287 kts 134°
2026-04-26 18:21 51.76816 -8.51494 9183 ft 288 kts 134°
2026-04-26 18:22 51.75412 -8.49155 9969 ft 293 kts 134°
2026-04-26 18:22 51.73981 -8.46789 10749 ft 301 kts 134°
2026-04-26 18:22 51.72452 -8.44274 11005 ft 327 kts 134°
2026-04-26 18:22 51.70815 -8.41597 11547 ft 340 kts 134°
2026-04-26 18:23 51.69132 -8.38856 12322 ft 345 kts 133°
2026-04-26 18:23 51.67428 -8.36092 13156 ft 350 kts 133°
2026-04-26 18:23 51.65696 -8.33288 13945 ft 355 kts 133°
2026-04-26 18:23 51.63937 -8.30447 14660 ft 361 kts 133°
2026-04-26 18:24 51.62155 -8.27574 15404 ft 364 kts 133°
2026-04-26 18:24 51.60377 -8.24712 16137 ft 368 kts 133°
2026-04-26 18:24 51.58555 -8.21785 16862 ft 372 kts 133°
2026-04-26 18:24 51.56715 -8.18832 17629 ft 375 kts 133°
2026-04-26 18:25 51.54859 -8.15855 18360 ft 379 kts 133°
2026-04-26 18:25 51.52980 -8.12847 18987 ft 384 kts 133°
2026-04-26 18:25 51.51091 -8.09827 19799 ft 381 kts 133°
2026-04-26 18:25 51.49205 -8.06816 20496 ft 383 kts 134°
2026-04-26 18:26 51.47304 -8.03784 21042 ft 389 kts 134°
2026-04-26 18:26 51.45370 -8.00703 21644 ft 393 kts 134°
2026-04-26 18:26 51.43423 -7.97606 22275 ft 395 kts 134°
2026-04-26 18:26 51.41482 -7.94522 22872 ft 399 kts 135°
2026-04-26 18:27 51.39502 -7.91379 23432 ft 403 kts 135°
2026-04-26 18:27 51.37504 -7.88213 23982 ft 406 kts 135°
2026-04-26 18:27 51.35486 -7.85019 24501 ft 408 kts 135°
2026-04-26 18:27 51.33459 -7.81814 24989 ft 411 kts 135°
2026-04-26 18:28 51.31416 -7.78590 25438 ft 414 kts 135°
2026-04-26 18:28 51.29354 -7.75338 25881 ft 418 kts 135°
2026-04-26 18:28 51.27303 -7.72108 26359 ft 419 kts 135°
2026-04-26 18:28 51.25222 -7.68836 26889 ft 420 kts 135°
2026-04-26 18:29 51.23132 -7.65555 27364 ft 422 kts 135°
2026-04-26 18:29 51.21032 -7.62260 27796 ft 424 kts 136°
2026-04-26 18:29 51.18922 -7.58955 28314 ft 425 kts 136°
2026-04-26 18:29 51.16809 -7.55651 28779 ft 426 kts 136°
2026-04-26 18:30 51.14682 -7.52330 29185 ft 429 kts 136°
2026-04-26 18:30 51.12540 -7.48989 29573 ft 432 kts 136°
2026-04-26 18:30 51.10384 -7.45632 29973 ft 434 kts 137°
2026-04-26 18:30 51.08223 -7.42269 30388 ft 435 kts 137°
2026-04-26 18:31 51.06050 -7.38894 30740 ft 436 kts 137°
2026-04-26 18:31 51.03873 -7.35517 31040 ft 439 kts 137°
2026-04-26 18:31 51.01713 -7.32172 31356 ft 440 kts 137°
2026-04-26 18:31 50.99516 -7.28773 31789 ft 438 kts 137°
2026-04-26 18:32 50.97341 -7.25412 32269 ft 436 kts 138°
2026-04-26 18:32 50.95171 -7.22063 32710 ft 434 kts 138°
2026-04-26 18:32 50.93006 -7.18728 33107 ft 434 kts 138°
2026-04-26 18:32 50.90837 -7.15391 33475 ft 433 kts 138°
2026-04-26 18:33 50.88674 -7.12068 33891 ft 432 kts 138°
2026-04-26 18:33 50.86516 -7.08757 34294 ft 431 kts 139°
2026-04-26 18:33 50.84358 -7.05450 34591 ft 431 kts 139°
2026-04-26 18:33 50.82201 -7.02150 34848 ft 431 kts 139°
2026-04-26 18:34 50.80068 -6.98892 35131 ft 432 kts 139°
2026-04-26 18:34 50.77904 -6.95591 35376 ft 433 kts 139°
2026-04-26 18:34 50.75735 -6.92286 35625 ft 433 kts 139°
2026-04-26 18:34 50.73561 -6.88977 35896 ft 434 kts 139°
2026-04-26 18:35 50.71385 -6.85671 36152 ft 434 kts 139°
2026-04-26 18:35 50.69207 -6.82364 36397 ft 435 kts 139°
2026-04-26 18:35 50.67026 -6.79059 36640 ft 435 kts 139°
2026-04-26 18:35 50.64840 -6.75749 36924 ft 435 kts 139°
2026-04-26 18:36 50.62656 -6.72449 37164 ft 435 kts 139°
2026-04-26 18:36 50.60469 -6.69148 37279 ft 438 kts 139°
2026-04-26 18:36 50.56033 -6.62468 37277 ft 441 kts 139°
2026-04-26 18:37 50.51625 -6.55843 37264 ft 435 kts 139°
2026-04-26 18:37 50.47254 -6.49292 37268 ft 433 kts 140°
2026-04-26 18:38 50.42913 -6.42809 37276 ft 432 kts 140°
2026-04-26 18:38 50.38556 -6.36314 37274 ft 432 kts 140°
2026-04-26 18:39 50.34199 -6.29839 37274 ft 431 kts 140°
2026-04-26 18:39 50.29843 -6.23381 37270 ft 431 kts 140°
2026-04-26 18:40 50.25486 -6.16940 37262 ft 431 kts 140°
2026-04-26 18:40 50.21158 -6.10560 37272 ft 430 kts 140°
2026-04-26 18:41 50.16811 -6.04140 37266 ft 430 kts 140°
2026-04-26 18:41 50.12462 -5.97733 37267 ft 430 kts 140°
2026-04-26 18:42 50.08103 -5.91349 37259 ft 430 kts 140°
2026-04-26 18:42 50.03738 -5.84983 37258 ft 429 kts 140°
2026-04-26 18:43 49.99372 -5.78635 37259 ft 429 kts 140°
2026-04-26 18:43 49.95007 -5.72304 37258 ft 429 kts 140°
2026-04-26 18:44 49.90665 -5.66023 37256 ft 429 kts 140°
2026-04-26 18:44 49.86288 -5.59708 37253 ft 429 kts 140°
2026-04-26 18:45 49.81916 -5.53414 37240 ft 429 kts 141°
2026-04-26 18:45 49.77541 -5.47134 37248 ft 429 kts 141°
2026-04-26 18:46 49.73169 -5.40873 37234 ft 428 kts 141°
2026-04-26 18:46 49.68789 -5.34618 37250 ft 428 kts 141°
2026-04-26 18:47 49.64437 -5.28417 37237 ft 428 kts 141°
2026-04-26 18:47 49.60059 -5.22197 37238 ft 428 kts 141°
2026-04-26 18:48 49.55680 -5.15988 37234 ft 427 kts 141°
2026-04-26 18:48 49.51297 -5.09789 37241 ft 427 kts 141°
2026-04-26 18:49 49.46800 -5.03853 37235 ft 423 kts 149°
2026-04-26 18:49 49.41898 -4.98850 37225 ft 422 kts 150°
2026-04-26 18:50 49.36962 -4.93935 37227 ft 422 kts 150°
2026-04-26 18:50 49.32075 -4.89019 37233 ft 422 kts 150°
2026-04-26 18:51 49.27167 -4.84046 37232 ft 423 kts 150°
2026-04-26 18:51 49.22266 -4.79076 37225 ft 423 kts 150°
2026-04-26 18:52 49.17354 -4.74106 37213 ft 423 kts 150°
2026-04-26 18:52 49.12443 -4.69149 37223 ft 423 kts 150°
2026-04-26 18:53 49.07534 -4.64207 37223 ft 423 kts 150°
2026-04-26 18:53 49.02614 -4.59266 37224 ft 423 kts 150°
2026-04-26 18:54 48.97693 -4.54337 37209 ft 424 kts 150°
2026-04-26 18:54 48.92800 -4.49447 37221 ft 424 kts 150°
2026-04-26 18:55 48.87869 -4.44530 37220 ft 424 kts 150°
2026-04-26 18:55 48.82926 -4.39613 37219 ft 424 kts 150°
2026-04-26 18:56 48.77984 -4.34709 37206 ft 424 kts 150°
2026-04-26 18:56 48.73041 -4.29816 37213 ft 424 kts 150°
2026-04-26 18:57 48.69763 -4.26577 37218 ft 424 kts 150°
2026-04-26 18:57 48.63164 -4.20074 37213 ft 425 kts 151°
2026-04-26 18:58 48.58196 -4.15191 37213 ft 425 kts 151°
2026-04-26 18:58 48.53232 -4.10323 37207 ft 426 kts 151°
2026-04-26 18:59 48.48261 -4.05461 37204 ft 426 kts 151°
2026-04-26 18:59 48.43275 -4.00594 37200 ft 427 kts 151°
2026-04-26 19:00 48.38289 -3.95739 37196 ft 427 kts 151°
2026-04-26 19:00 48.33330 -3.90923 37190 ft 426 kts 151°
2026-04-26 19:01 48.28342 -3.86089 37186 ft 427 kts 151°
2026-04-26 19:01 48.23345 -3.81258 37184 ft 427 kts 151°
2026-04-26 19:02 48.19187 -3.77246 37191 ft 428 kts 151°
2026-04-26 19:02 48.15020 -3.73234 37172 ft 428 kts 151°
2026-04-26 19:03 48.08338 -3.66814 37184 ft 429 kts 151°
2026-04-26 19:03 48.04327 -3.62399 37178 ft 436 kts 138°
2026-04-26 19:04 48.00797 -3.54935 37184 ft 447 kts 118°
2026-04-26 19:04 47.98254 -3.46453 37188 ft 448 kts 117°
2026-04-26 19:05 47.94478 -3.33728 37182 ft 448 kts 117°
2026-04-26 19:06 47.91896 -3.25249 37183 ft 449 kts 118°
2026-04-26 19:06 47.89287 -3.16762 37192 ft 450 kts 118°
2026-04-26 19:07 47.86665 -3.08262 37183 ft 451 kts 118°
2026-04-26 19:07 47.84052 -2.99815 37187 ft 451 kts 118°
2026-04-26 19:08 47.81416 -2.91322 37180 ft 452 kts 118°
2026-04-26 19:08 47.78771 -2.82826 37199 ft 452 kts 118°
2026-04-26 19:09 47.76120 -2.74341 37166 ft 452 kts 118°
2026-04-26 19:09 47.73481 -2.65921 37177 ft 452 kts 118°
2026-04-26 19:10 47.70823 -2.57463 37186 ft 452 kts 118°
2026-04-26 19:10 47.67965 -2.49194 37173 ft 448 kts 127°
2026-04-26 19:11 47.63997 -2.42142 37184 ft 444 kts 135°
2026-04-26 19:11 47.59510 -2.35904 37190 ft 441 kts 143°
2026-04-26 19:12 47.54798 -2.30159 37182 ft 441 kts 144°
2026-04-26 19:12 47.50059 -2.24381 37184 ft 441 kts 143°
2026-04-26 19:13 47.45343 -2.18554 37186 ft 441 kts 143°
2026-04-26 19:13 47.40673 -2.12751 37185 ft 442 kts 143°
2026-04-26 19:14 47.35970 -2.06909 37165 ft 442 kts 142°
2026-04-26 19:14 47.31262 -2.01074 37182 ft 442 kts 142°
2026-04-26 19:15 47.26545 -1.95245 37186 ft 443 kts 142°
2026-04-26 19:15 47.21818 -1.89418 37182 ft 443 kts 142°
2026-04-26 19:16 47.17079 -1.83590 37183 ft 444 kts 142°
2026-04-26 19:16 47.12326 -1.77760 37182 ft 445 kts 142°
2026-04-26 19:17 47.07569 -1.71940 37170 ft 445 kts 143°
2026-04-26 19:17 47.02834 -1.66158 37169 ft 446 kts 143°
2026-04-26 19:18 46.98061 -1.60346 37167 ft 446 kts 142°
2026-04-26 19:18 46.93286 -1.54544 37171 ft 446 kts 142°
2026-04-26 19:19 46.88502 -1.48746 37184 ft 446 kts 143°
2026-04-26 19:19 46.83718 -1.42960 37185 ft 447 kts 143°
2026-04-26 19:20 46.78952 -1.37211 37190 ft 447 kts 143°
2026-04-26 19:20 46.74155 -1.31438 37180 ft 447 kts 143°
2026-04-26 19:21 46.69358 -1.25679 37184 ft 446 kts 143°
2026-04-26 19:21 46.64554 -1.19926 37179 ft 446 kts 143°
2026-04-26 19:22 46.59760 -1.14198 37186 ft 446 kts 143°
2026-04-26 19:22 46.54961 -1.08477 37167 ft 446 kts 143°
2026-04-26 19:23 46.50157 -1.02763 37184 ft 446 kts 143°
2026-04-26 19:23 46.45380 -0.97097 37183 ft 446 kts 143°
2026-04-26 19:24 46.40571 -0.91405 37183 ft 446 kts 143°
2026-04-26 19:24 46.33354 -0.82887 37163 ft 446 kts 143°
2026-04-26 19:25 46.29346 -0.78170 37174 ft 446 kts 142°
2026-04-26 19:25 46.23736 -0.71583 37180 ft 447 kts 142°
2026-04-26 19:26 46.18899 -0.65917 37182 ft 448 kts 142°
2026-04-26 19:26 46.14057 -0.60260 37171 ft 448 kts 142°
2026-04-26 19:27 46.09196 -0.54593 37180 ft 449 kts 142°
2026-04-26 19:27 46.04335 -0.48939 37182 ft 449 kts 142°
2026-04-26 19:28 45.99463 -0.43286 37176 ft 450 kts 143°
2026-04-26 19:28 45.94589 -0.37644 37166 ft 450 kts 142°
2026-04-26 19:29 45.89740 -0.32043 37176 ft 450 kts 142°
2026-04-26 19:29 45.84862 -0.26422 37170 ft 450 kts 143°
2026-04-26 19:30 45.79977 -0.20807 37175 ft 449 kts 143°
2026-04-26 19:30 45.75924 -0.16157 37166 ft 449 kts 143°
2026-04-26 19:31 45.70218 -0.09626 37161 ft 449 kts 143°
2026-04-26 19:31 45.65337 -0.04054 37164 ft 448 kts 143°
2026-04-26 19:32 45.60491 0.01467 37158 ft 448 kts 143°
2026-04-26 19:32 45.55609 0.07014 37158 ft 448 kts 142°
2026-04-26 19:33 45.50738 0.12538 37166 ft 447 kts 142°
2026-04-26 19:33 45.45863 0.18053 37159 ft 447 kts 143°
2026-04-26 19:34 45.40982 0.23562 37160 ft 448 kts 143°
2026-04-26 19:34 45.36098 0.29063 37157 ft 447 kts 143°
2026-04-26 19:35 45.31244 0.34517 37155 ft 448 kts 143°
2026-04-26 19:35 45.26350 0.40004 37145 ft 448 kts 142°
2026-04-26 19:36 45.22277 0.44560 37145 ft 448 kts 142°
2026-04-26 19:36 45.16540 0.50964 37139 ft 448 kts 142°
2026-04-26 19:37 45.11662 0.56396 37156 ft 448 kts 142°
2026-04-26 19:37 45.06748 0.61856 37151 ft 448 kts 142°
2026-04-26 19:38 45.01834 0.67303 37155 ft 448 kts 142°
2026-04-26 19:38 44.96924 0.72734 37130 ft 448 kts 142°
2026-04-26 19:39 44.92017 0.78150 37136 ft 448 kts 142°
2026-04-26 19:39 44.87132 0.83529 37136 ft 447 kts 142°
2026-04-26 19:40 44.82220 0.88926 37135 ft 447 kts 142°
2026-04-26 19:40 44.77338 0.94278 37141 ft 447 kts 142°
2026-04-26 19:41 44.72427 0.99650 37145 ft 447 kts 142°
2026-04-26 19:41 44.69169 1.03207 37147 ft 447 kts 142°
2026-04-26 19:42 44.62623 1.10339 37144 ft 447 kts 142°
2026-04-26 19:42 44.57707 1.15680 37145 ft 447 kts 142°
2026-04-26 19:43 44.52782 1.21021 37139 ft 447 kts 142°
2026-04-26 19:43 44.47856 1.26350 37141 ft 447 kts 142°
2026-04-26 19:44 44.42930 1.31668 37142 ft 448 kts 142°
2026-04-26 19:44 44.37981 1.37000 37143 ft 447 kts 142°
2026-04-26 19:45 44.33075 1.42273 37144 ft 447 kts 142°
2026-04-26 19:45 44.28131 1.47575 37145 ft 447 kts 142°
2026-04-26 19:46 44.23188 1.52866 37152 ft 447 kts 142°
2026-04-26 19:46 44.18247 1.58143 37144 ft 448 kts 142°
2026-04-26 19:47 44.14971 1.61634 37146 ft 448 kts 142°
2026-04-26 19:47 44.08377 1.68649 37077 ft 449 kts 142°
2026-04-26 19:48 44.05893 1.71286 36748 ft 448 kts 142°
2026-04-26 19:48 44.03430 1.73899 36393 ft 442 kts 142°
2026-04-26 19:48 44.00992 1.76482 36039 ft 437 kts 142°
2026-04-26 19:48 43.98580 1.79036 35642 ft 434 kts 142°
2026-04-26 19:49 43.96183 1.81570 35264 ft 431 kts 141°
2026-04-26 19:49 43.93747 1.83984 34863 ft 429 kts 145°
2026-04-26 19:49 43.91246 1.86243 34473 ft 427 kts 146°
2026-04-26 19:49 43.88737 1.88435 34078 ft 425 kts 146°
2026-04-26 19:50 43.86235 1.90601 33656 ft 423 kts 146°
2026-04-26 19:50 43.83748 1.92756 33254 ft 420 kts 146°
2026-04-26 19:50 43.81312 1.94879 32867 ft 417 kts 146°
2026-04-26 19:50 43.78862 1.97022 32490 ft 414 kts 146°
2026-04-26 19:51 43.76437 1.99149 32125 ft 412 kts 146°
2026-04-26 19:51 43.74025 2.01269 31765 ft 409 kts 146°
2026-04-26 19:51 43.71629 2.03374 31402 ft 407 kts 146°
2026-04-26 19:51 43.69252 2.05462 31046 ft 404 kts 146°
2026-04-26 19:52 43.66879 2.07546 30691 ft 402 kts 146°
2026-04-26 19:52 43.65318 2.08915 30458 ft 401 kts 146°
2026-04-26 19:52 43.62968 2.10975 30089 ft 399 kts 146°
2026-04-26 19:52 43.60628 2.13023 29685 ft 397 kts 146°
2026-04-26 19:53 43.58303 2.15056 29312 ft 394 kts 146°
2026-04-26 19:53 43.55997 2.17071 28943 ft 390 kts 146°
2026-04-26 19:53 43.53709 2.19068 28570 ft 387 kts 146°
2026-04-26 19:53 43.51439 2.21048 28201 ft 384 kts 146°
2026-04-26 19:54 43.49215 2.22986 27842 ft 382 kts 146°
2026-04-26 19:54 43.46970 2.24940 27482 ft 380 kts 146°
2026-04-26 19:54 43.44744 2.26877 27118 ft 377 kts 146°
2026-04-26 19:54 43.42530 2.28801 26761 ft 375 kts 146°
2026-04-26 19:55 43.40323 2.30717 26415 ft 373 kts 146°
2026-04-26 19:55 43.38132 2.32618 26044 ft 372 kts 146°
2026-04-26 19:55 43.35945 2.34513 25686 ft 370 kts 146°
2026-04-26 19:55 43.33798 2.36373 25342 ft 369 kts 146°
2026-04-26 19:56 43.31629 2.38251 24990 ft 368 kts 146°
2026-04-26 19:56 43.29442 2.40141 24643 ft 367 kts 146°
2026-04-26 19:56 43.27313 2.41980 24286 ft 366 kts 146°
2026-04-26 19:56 43.25159 2.43840 23932 ft 365 kts 146°
2026-04-26 19:57 43.23005 2.45698 23555 ft 365 kts 146°
2026-04-26 19:57 43.20861 2.47545 23151 ft 363 kts 146°
2026-04-26 19:57 43.18723 2.49386 22789 ft 361 kts 146°
2026-04-26 19:57 43.16596 2.51215 22442 ft 359 kts 146°
2026-04-26 19:58 43.14488 2.53026 22081 ft 357 kts 146°
2026-04-26 19:58 43.12389 2.54829 21745 ft 354 kts 146°
2026-04-26 19:58 43.10307 2.56616 21406 ft 352 kts 146°
2026-04-26 19:58 43.08261 2.58370 21074 ft 351 kts 147°
2026-04-26 19:59 43.06197 2.60138 20728 ft 349 kts 147°
2026-04-26 19:59 43.04147 2.61894 20408 ft 347 kts 147°
2026-04-26 19:59 43.02101 2.63644 20065 ft 346 kts 147°
2026-04-26 19:59 43.00062 2.65386 19734 ft 345 kts 147°
2026-04-26 20:00 42.98035 2.67117 19399 ft 343 kts 147°
2026-04-26 20:00 42.96008 2.68848 19064 ft 342 kts 147°
2026-04-26 20:00 42.93988 2.70570 18738 ft 341 kts 147°
2026-04-26 20:00 42.91978 2.72283 18405 ft 340 kts 147°
2026-04-26 20:01 42.89972 2.73991 18010 ft 339 kts 147°
2026-04-26 20:01 42.87975 2.75690 17652 ft 337 kts 147°
2026-04-26 20:01 42.85987 2.77380 17309 ft 335 kts 148°
2026-04-26 20:01 42.84041 2.79033 16982 ft 333 kts 148°
2026-04-26 20:02 42.82076 2.80702 16652 ft 331 kts 148°
2026-04-26 20:02 42.80127 2.82356 16313 ft 329 kts 148°
2026-04-26 20:02 42.78187 2.84000 15995 ft 327 kts 148°
2026-04-26 20:02 42.76910 2.85081 15784 ft 325 kts 148°
2026-04-26 20:03 42.74290 2.87113 15370 ft 322 kts 159°
2026-04-26 20:03 42.72186 2.88088 15128 ft 317 kts 163°
2026-04-26 20:03 42.70097 2.88943 14820 ft 316 kts 164°
2026-04-26 20:03 42.69386 2.89231 14718 ft 316 kts 164°
2026-04-26 20:04 42.65904 2.90660 14206 ft 314 kts 164°
2026-04-26 20:04 42.63822 2.91533 13890 ft 313 kts 164°
2026-04-26 20:04 42.61749 2.92413 13540 ft 312 kts 163°
2026-04-26 20:04 42.59686 2.93293 13221 ft 310 kts 163°
2026-04-26 20:05 42.57626 2.94175 12882 ft 308 kts 163°
2026-04-26 20:05 42.55581 2.95052 12562 ft 307 kts 163°
2026-04-26 20:05 42.53576 2.95911 12258 ft 305 kts 163°
2026-04-26 20:05 42.51547 2.96780 11951 ft 304 kts 163°
2026-04-26 20:06 42.49529 2.97643 11641 ft 303 kts 163°
2026-04-26 20:06 42.47455 2.98016 11304 ft 302 kts 187°
2026-04-26 20:06 42.45422 2.97417 11031 ft 297 kts 197°
2026-04-26 20:06 42.43441 2.96639 10735 ft 296 kts 197°
2026-04-26 20:07 42.41469 2.95840 10423 ft 296 kts 197°
2026-04-26 20:07 42.39508 2.95051 10224 ft 291 kts 197°
2026-04-26 20:07 42.37582 2.94287 9995 ft 288 kts 197°
2026-04-26 20:07 42.35664 2.93534 9688 ft 287 kts 197°
2026-04-26 20:08 42.33748 2.92787 9378 ft 285 kts 197°
2026-04-26 20:08 42.31866 2.92057 9098 ft 284 kts 196°
2026-04-26 20:08 42.29971 2.91324 8814 ft 283 kts 196°
2026-04-26 20:08 42.28083 2.90596 8535 ft 281 kts 196°
2026-04-26 20:09 42.26206 2.89872 8256 ft 280 kts 196°
2026-04-26 20:09 42.24328 2.89149 7829 ft 284 kts 196°
2026-04-26 20:09 42.22398 2.88407 7322 ft 292 kts 196°
2026-04-26 20:09 42.20422 2.87648 6796 ft 299 kts 195°
2026-04-26 20:10 42.18407 2.86874 6144 ft 303 kts 195°
2026-04-26 20:10 42.16370 2.86088 5534 ft 303 kts 197°
2026-04-26 20:10 42.14362 2.85280 5057 ft 297 kts 196°
2026-04-26 20:10 42.12400 2.84515 4648 ft 288 kts 195°
2026-04-26 20:11 42.10520 2.83801 4275 ft 281 kts 196°
2026-04-26 20:11 42.08664 2.83100 3908 ft 273 kts 196°
2026-04-26 20:11 42.06902 2.82433 3554 ft 253 kts 196°
2026-04-26 20:12 42.04731 2.81610 3161 ft 233 kts 196°
2026-04-26 20:12 42.02269 2.80677 2689 ft 209 kts 197°
2026-04-26 20:12 42.00914 2.80163 2417 ft 195 kts 197°
2026-04-26 20:12 41.99653 2.79685 2164 ft 182 kts 197°
2026-04-26 20:13 41.98472 2.79237 1923 ft 172 kts 197°
2026-04-26 20:13 41.97336 2.78805 1706 ft 168 kts 197°
2026-04-26 20:13 41.96206 2.78376 1494 ft 168 kts 197°
2026-04-26 20:13 41.95129 2.77968 1266 ft 155 kts 197°
2026-04-26 20:14 41.94146 2.77596 1039 ft 149 kts 196°
2026-04-26 20:14 41.93157 2.77226 875 ft 146 kts 196°
2026-04-26 20:14 41.92179 2.76847 658 ft 145 kts 195°
2026-04-26 20:14 41.91220 2.76485 489 ft 139 kts 195°
2026-04-26 20:15 41.90401 2.76172 451 ft 95 kts 196°
2026-04-26 20:15 41.89951 2.76003 430 ft 53 kts 195°
2026-04-26 20:15 41.89635 2.75883 409 ft 27 kts 196°
2026-04-26 20:15 41.89524 2.75941 410 ft 20 kts 73°
2026-04-26 20:16 41.89566 2.76042 408 ft 5 kts 60°
2026-04-26 20:16 41.89585 2.76083 410 ft 5 kts 52°
2026-04-26 20:16 41.89616 2.76105 413 ft 5 kts 16°
2026-04-26 20:16 41.89649 2.76118 408 ft 5 kts 16°
2026-04-26 20:17 41.89682 2.76131 416 ft 5 kts 16°
2026-04-26 20:17 41.89714 2.76143 414 ft 5 kts 16°
2026-04-26 20:17 41.89746 2.76155 419 ft 5 kts 16°
2026-04-26 20:17 41.89766 2.76163 414 ft 5 kts 14°
2026-04-26 20:18 41.89807 2.76177 422 ft 4 kts 14°
2026-04-26 20:18 41.89836 2.76188 423 ft 4 kts 15°
2026-04-26 20:18 41.89865 2.76199 425 ft 4 kts 16°
2026-04-26 20:18 41.89894 2.76210 418 ft 4 kts 18°
2026-04-26 20:19 41.89908 2.76242 426 ft 5 kts 88°
2026-04-26 20:19 41.89899 2.76303 419 ft 9 kts 104°
2026-04-26 20:19 41.89880 2.76372 420 ft 8 kts 125°
2026-04-26 20:19 41.89829 2.76399 413 ft 3 kts 146°
2026-04-26 20:20 41.89819 2.76432 417 ft 5 kts 106°
2026-04-26 20:20 41.89813 2.76463 414 ft 0 kts 105°